sat.trackr.live / text

‹ back to catalog

YUNYAO-1 20

NORAD 58760 · 2024-009C

PAYLOAD ACTIVE UNKNOWN

§ Identity

Operator
Country
PRC
Launch date
2024-01-11
Launch site
YSLA
Launch vehicle
Mass (kg)
RCS (m²)

External: N2YO · Heavens-Above · Gunter

§ Orbital elements

Epoch: 2026-09-21T21:59:14.329248Z

Period
94.76 min
Inclination
49.9776°
Eccentricity
0.0003803
Mean motion
15.19625446 rev/d
Perigee alt
504.4 km
Apogee alt
509.6 km
Semi-major
6,885.1 km
B*
2.6952e-4
RAAN
51.8634°
Arg perigee
316.0885°
Mean anomaly
43.9766°
Rev number
14,939

§ Raw data

YUNYAO-1 201 58760U 24009C   26264.91613807  .00005512  00000+0  26952-3 0  99952 58760  49.9776  51.8634 0003803 316.0885  43.9766 15.19625446149396

JSON: /api/v1/satellites/58760 · /tle

For live sub-satellite position, see the globe view (requires WebGL).

§ Visibility from observer

Set your observer location to see the next 7 days of passes ≥ 10°. The values pass through the URL so the page stays shareable.

No JS? Fill the form by hand. The geolocation button needs JavaScript.